BEIDOU-3 IGSO-3

Last updated on Sat Aug 15 2026 00:03:02 GMT+0000 (Coordinated Universal Time)

1 44709U 19073A 26226.54854072 -.00000170 00000+0 00000+0 0 9994 2 44709 54.7009 280.2633 0046868 197.1137 162.8423 1.00273017 25044
UTC large
Height (km)
Speed (km/s)
/
Latitude / Longitude
Inclination (degrees)
Orbital Period (minutes)
Azimuth
Elevation
Range (km)
Doppler Factor

Next 0 passes for location: London (51.5072 / 0.1276)

No passes found over London.
BEIDOU-3 IGSO-3